Hourly Weather Dzialyn

Today, 8 May, Saturday

Time Temperature Precipitation Wind Pressure Humidity
00:00 +3°C° 0.3 mm 3 mps 747 mmHg 91%
01:00 +2°C° 0 mm 3 mps 748 mmHg 92%
02:00 +2°C° 0 mm 3 mps 748 mmHg 93%
03:00 +1°C° 0 mm 3 mps 748 mmHg 94%
04:00 +1°C° 0 mm 3 mps 749 mmHg 95%
05:00 +1°C° 0 mm 4 mps 749 mmHg 93%
06:00 +3°C° 0 mm 4 mps 750 mmHg 90%
07:00 +2°C° 0 mm 5 mps 750 mmHg 88%
08:00 +3°C° 0 mm 5 mps 751 mmHg 85%
09:00 +3°C° 0 mm 5 mps 751 mmHg 81%
10:00 +5°C° 0 mm 5 mps 751 mmHg 78%
11:00 +6°C° 0.1 mm 5 mps 751 mmHg 72%
12:00 +7°C° 0.1 mm 5 mps 751 mmHg 66%
13:00 +8°C° 0.1 mm 5 mps 751 mmHg 61%
14:00 +8°C° 0.4 mm 5 mps 752 mmHg 63%
15:00 +8°C° 0.4 mm 5 mps 752 mmHg 66%
16:00 +8°C° 0.4 mm 5 mps 752 mmHg 68%
17:00 +7°C° 0.2 mm 4 mps 752 mmHg 74%
18:00 +5°C° 0.2 mm 3 mps 752 mmHg 80%
19:00 +5°C° 0.2 mm 2 mps 753 mmHg 85%
20:00 +4°C° 0 mm 2 mps 753 mmHg 86%
21:00 +5°C° 0 mm 1 mps 753 mmHg 86%
22:00 +4°C° 0 mm 1 mps 754 mmHg 87%
23:00 +4°C° 0 mm 1 mps 754 mmHg 87%

Tomorrow, 9 May, Sunday

Time Temperature Precipitation Wind Pressure Humidity
00:00 +2°C° 0 mm 2 mps 754 mmHg 88%
01:00 +2°C° 0 mm 2 mps 754 mmHg 88%
02:00 +2°C° 0 mm 2 mps 754 mmHg 88%
03:00 +2°C° 0 mm 2 mps 755 mmHg 89%
04:00 +1°C° 0 mm 3 mps 755 mmHg 89%
05:00 +3°C° 0 mm 3 mps 755 mmHg 85%
06:00 +5°C° 0 mm 3 mps 755 mmHg 81%
07:00 +7°C° 0 mm 4 mps 755 mmHg 77%
08:00 +8°C° 0 mm 4 mps 754 mmHg 70%
09:00 +10°C° 0 mm 5 mps 754 mmHg 64%
10:00 +13°C° 0 mm 6 mps 754 mmHg 58%
11:00 +13°C° 0 mm 5 mps 754 mmHg 61%
12:00 +13°C° 0 mm 5 mps 754 mmHg 64%
13:00 +13°C° 0 mm 4 mps 754 mmHg 67%
14:00 +13°C° 0 mm 4 mps 753 mmHg 68%
15:00 +14°C° 0 mm 4 mps 753 mmHg 69%
16:00 +14°C° 0 mm 4 mps 753 mmHg 70%
17:00 +13°C° 0 mm 4 mps 753 mmHg 75%
18:00 +12°C° 0 mm 4 mps 753 mmHg 79%
19:00 +11°C° 0 mm 4 mps 753 mmHg 84%
20:00 +11°C° 0 mm 4 mps 753 mmHg 82%
21:00 +10°C° 0 mm 4 mps 753 mmHg 81%
22:00 +10°C° 0 mm 4 mps 753 mmHg 80%
23:00 +8°C° 0 mm 4 mps 753 mmHg 84%

Day after tomorrow, 10 May, Monday

Time Temperature Precipitation Wind Pressure Humidity
00:00 +8°C° 0 mm 4 mps 753 mmHg 87%
01:00 +7°C° 0 mm 4 mps 753 mmHg 91%
02:00 +7°C° 0 mm 4 mps 753 mmHg 91%
03:00 +6°C° 0 mm 4 mps 753 mmHg 92%
04:00 +6°C° 0 mm 4 mps 753 mmHg 92%
05:00 +8°C° 0 mm 4 mps 753 mmHg 86%
06:00 +9°C° 0 mm 5 mps 753 mmHg 81%
07:00 +11°C° 0 mm 6 mps 753 mmHg 75%
08:00 +14°C° 0 mm 6 mps 753 mmHg 70%
09:00 +16°C° 0 mm 7 mps 753 mmHg 64%
10:00 +17°C° 0 mm 8 mps 753 mmHg 59%
11:00 +18°C° 0 mm 8 mps 752 mmHg 59%
12:00 +20°C° 0 mm 8 mps 752 mmHg 59%
13:00 +21°C° 0 mm 8 mps 752 mmHg 59%
14:00 +21°C° 0 mm 8 mps 752 mmHg 61%
15:00 +21°C° 0 mm 8 mps 752 mmHg 63%
16:00 +20°C° 0 mm 8 mps 751 mmHg 65%
17:00 +18°C° 0 mm 7 mps 752 mmHg 69%
18:00 +17°C° 0 mm 7 mps 752 mmHg 73%
19:00 +16°C° 0 mm 6 mps 752 mmHg 77%
20:00 +15°C° 0 mm 6 mps 752 mmHg 78%
21:00 +14°C° 0 mm 6 mps 752 mmHg 79%
22:00 +14°C° 0 mm 6 mps 752 mmHg 81%
23:00 +13°C° 0 mm 6 mps 752 mmHg 83%

11 May, Tuesday

Time Temperature Precipitation Wind Pressure Humidity
00:00 +12°C° 0 mm 5 mps 752 mmHg 85%
01:00 +12°C° 0 mm 5 mps 752 mmHg 88%
02:00 +10°C° 0 mm 5 mps 752 mmHg 88%
03:00 +10°C° 0 mm 5 mps 752 mmHg 88%
04:00 +9°C° 0 mm 6 mps 751 mmHg 88%
05:00 +10°C° 0 mm 6 mps 751 mmHg 84%
06:00 +12°C° 0 mm 7 mps 751 mmHg 81%
07:00 +14°C° 0 mm 7 mps 751 mmHg 78%
08:00 +15°C° 0 mm 8 mps 751 mmHg 73%
09:00 +17°C° 0 mm 8 mps 751 mmHg 69%
10:00 +19°C° 0 mm 9 mps 751 mmHg 65%
11:00 +19°C° 0 mm 9 mps 750 mmHg 65%
12:00 +21°C° 0 mm 9 mps 750 mmHg 64%
13:00 +22°C° 0 mm 9 mps 750 mmHg 64%
14:00 +22°C° 0 mm 8 mps 750 mmHg 65%
15:00 +22°C° 0 mm 8 mps 750 mmHg 66%
16:00 +21°C° 0 mm 8 mps 750 mmHg 67%
17:00 +20°C° 0 mm 8 mps 750 mmHg 68%
18:00 +18°C° 0 mm 8 mps 750 mmHg 70%
19:00 +16°C° 0 mm 7 mps 750 mmHg 71%
20:00 +15°C° 0 mm 7 mps 750 mmHg 68%
21:00 +15°C° 0 mm 7 mps 750 mmHg 66%
22:00 +14°C° 0 mm 7 mps 750 mmHg 63%
23:00 +12°C° 0 mm 7 mps 750 mmHg 64%

12 May, Wednesday

Time Temperature Precipitation Wind Pressure Humidity
00:00 +13°C° 0 mm 6 mps 750 mmHg 66%
01:00 +11°C° 0 mm 6 mps 750 mmHg 67%
02:00 +10°C° 0 mm 6 mps 749 mmHg 71%
03:00 +10°C° 0 mm 6 mps 749 mmHg 74%
04:00 +9°C° 0 mm 6 mps 749 mmHg 77%
05:00 +11°C° 0 mm 6 mps 749 mmHg 77%
06:00 +12°C° 0 mm 7 mps 749 mmHg 77%
07:00 +14°C° 0 mm 7 mps 749 mmHg 76%
08:00 +16°C° 0 mm 7 mps 749 mmHg 73%
09:00 +17°C° 0 mm 8 mps 749 mmHg 70%
10:00 +18°C° 0 mm 8 mps 749 mmHg 67%
11:00 +20°C° 0 mm 8 mps 749 mmHg 63%
12:00 +20°C° 0 mm 8 mps 748 mmHg 59%
13:00 +21°C° 0 mm 8 mps 748 mmHg 55%
14:00 +21°C° 0 mm 7 mps 748 mmHg 59%
15:00 +20°C° 0 mm 7 mps 748 mmHg 62%
16:00 +20°C° 0 mm 6 mps 748 mmHg 66%
17:00 +17°C° 0 mm 6 mps 748 mmHg 70%
18:00 +15°C° 0 mm 6 mps 748 mmHg 74%
19:00 +14°C° 0 mm 6 mps 748 mmHg 78%
20:00 +11°C° 0 mm 6 mps 748 mmHg 80%
21:00 +10°C° 0 mm 6 mps 748 mmHg 82%
22:00 +9°C° 0 mm 5 mps 748 mmHg 84%
23:00 +8°C° 0 mm 5 mps 748 mmHg 87%

13 May, Thursday

Time Temperature Precipitation Wind Pressure Humidity
00:00 +8°C° 0 mm 4 mps 748 mmHg 90%
01:00 +7°C° 0 mm 4 mps 748 mmHg 92%
02:00 +7°C° 0 mm 4 mps 748 mmHg 93%
03:00 +6°C° 0 mm 4 mps 748 mmHg 95%
04:00 +6°C° 0 mm 4 mps 748 mmHg 96%
05:00 +7°C° 0 mm 5 mps 747 mmHg 89%
06:00 +9°C° 0 mm 5 mps 747 mmHg 83%
07:00 +10°C° 0 mm 6 mps 747 mmHg 77%
08:00 +10°C° 0 mm 5 mps 747 mmHg 73%
09:00 +12°C° 0 mm 5 mps 747 mmHg 69%
10:00 +13°C° 0 mm 5 mps 746 mmHg 65%
11:00 +13°C° 0 mm 4 mps 746 mmHg 65%
12:00 +14°C° 0 mm 4 mps 746 mmHg 65%
13:00 +14°C° 0 mm 3 mps 745 mmHg 65%
14:00 +13°C° 0.1 mm 3 mps 745 mmHg 72%
15:00 +12°C° 0.1 mm 3 mps 745 mmHg 79%
16:00 +12°C° 0.1 mm 2 mps 745 mmHg 86%
17:00 +12°C° 0.5 mm 2 mps 745 mmHg 89%
18:00 +10°C° 0.5 mm 2 mps 745 mmHg 92%
19:00 +9°C° 0.5 mm 2 mps 744 mmHg 95%
20:00 +10°C° 0.9 mm 1 mps 744 mmHg 95%
21:00 +10°C° 0.9 mm 1 mps 744 mmHg 96%
22:00 +10°C° 0.9 mm 1 mps 744 mmHg 96%
23:00 +9°C° 0.6 mm 1 mps 744 mmHg 96%
Show more

We Need Your Consent

Meteoprog and our Service Providers may store and access personal data such as cookies, device identifiers or other similar technologies on your device and process such data to personalise content and ads, as well as provide social media features and to analyse the traffic.

  • Store and/or access information on your device

    Cookies, device identifiers or other information can be stored or accessed on your device for the purposes indicated above.

  • Personalised ads and content, ad and content measurement, audience insights, and products development

    Ads and content can be personalised based on a profile. More data can be added to better personalise ads and content. Ad and content performance can be measured. Insights about the audience who saw the ads and content can be derived. Such data can be used to develop or improve user’s experience, systems and software.

By clicking ‘I Agree’ you will allow the use of indicated cookies, device identifiers, web beacons or other similar technologies. Your settings can be changed in the browser on your device.

For certain purposes, legitimate interests may be relied on, rather than consent. You can read more about this in our Privacy and Cookie Policy.